Content
SEND FEEDBACK

Daily
Averages
Monthly
Summary
United States of America

ST. LOUIS, MISSOURI


Home > North America > United States > Missouri
Elevation: 535 feet     Latitude: 38 45N     Longitude: 090 22W

WEATHER
 
SELECT A DAY
Number of Records: 196,207;   Date Range: 1/1/95 - 7/7/14
 
SHARE

PRINT THIS DATA

[ ← Previous Day ]
WEATHER ALMANAC - DECEMBER 7, 2013
[ Next Day → ]
[ °C ]   °F
Weather ElementAverageHighLow
Temperature17.7 °F21.9 °F (12:54 pm)10.9 °F (6:54 am)
Dewpoint5.4 °F10 °F (10:54 pm)3 °F (2:54 am)
Humidity59 %70 % (6:54 am)48 % (1:54 pm)
Barometer30.66 in30.76 in (9:54 am)30.51 in (11:54 pm)
Wind Speed6.1 mph9.2 mph (2:54 pm)
Weather ElementAverage
Visibility10 mi
Wind DirectionESE (98.7 °)

Weather ElementTotal
Precipitation---
Heating Degree Days48.6 (Base 65)
Averaged from 23 records on December 7, 2013
WEATHER CONDITIONS BREAKOUT
WIND DIRECTION BREAKOUT
WEATHER BY HOUR - DECEMBER 7, 2013
[ °C ]   °F
Local TimeTemperatureDewpointHumidityBarometerVisibilityWind DirectionWind SpeedGust SpeedPrecipitationEventsConditions
1:54 AM12.9 °F3.9 °F67 %30.66 in10.0 miNorth (360°)5.8 mphClear
2:54 AM12.9 °F3.0 °F65 %30.68 in10.0 miNorth (360°)5.8 mphClear
3:54 AM12.0 °F3.0 °F67 %30.68 in10.0 miNorth (350°)4.6 mphClear
4:54 AM12.0 °F3.0 °F67 %30.70 in10.0 miNorth (360°)4.6 mphClear
5:54 AM12.0 °F3.0 °F67 %30.71 in10.0 miNorth (10°)4.6 mphClear
6:54 AM10.9 °F3.0 °F70 %30.73 in10.0 miNorth (10°)4.6 mphClear
7:54 AM12.0 °F3.0 °F67 %30.74 in10.0 miNorth (10°)8.1 mphClear
8:54 AM14.0 °F3.9 °F64 %30.75 in10.0 miNorth (10°)6.9 mphClear
9:54 AM17.1 °F3.9 °F56 %30.76 in10.0 miNorth (10°)8.1 mphClear
10:54 AM18.0 °F5.0 °F57 %30.75 in10.0 miENE (60°)5.8 mphClear
11:54 AM19.9 °F5.0 °F52 %30.72 in10.0 miVariable6.9 mphMostly Cloudy
12:54 PM21.9 °F6.1 °F51 %30.70 in10.0 miENE (60°)8.1 mphClear
1:54 PM21.9 °F5.0 °F48 %30.66 in10.0 miNNE (30°)3.5 mphClear
2:54 PM21.9 °F7.0 °F53 %30.64 in10.0 miEast (80°)9.2 mphClear
3:54 PM21.9 °F6.1 °F51 %30.65 in10.0 miEast (80°)5.8 mphClear
4:54 PM21.0 °F5.0 °F50 %30.64 in10.0 miNNE (30°)5.8 mphMostly Cloudy
5:54 PM19.9 °F6.1 °F55 %30.60 in10.0 miENE (60°)6.9 mphMostly Cloudy
6:54 PM19.9 °F7.0 °F57 %30.57 in10.0 miNE (50°)6.9 mphClear
7:54 PM19.0 °F7.0 °F59 %30.60 in10.0 miENE (70°)4.6 mphClear
8:54 PM21.0 °F8.1 °F57 %30.57 in10.0 miNE (40°)4.6 mphClear
9:54 PM21.0 °F9.0 °F60 %30.56 in10.0 miEast (80°)6.9 mphClear
10:54 PM21.9 °F10.0 °F60 %30.53 in10.0 miENE (60°)6.9 mphScattered Clouds
11:54 PM21.9 °F9.0 °F58 %30.51 in10.0 miEast (90°)4.6 mphOvercast
Hourly data recorded from KSUS, located miles away from St. Louis, Missouri







STORIES FROM OUR PARTNERS